sat.trackr.live / text

‹ back to catalog

STARLINK-4079

NORAD 52666 · 2022-053L

PAYLOAD ACTIVE UNKNOWN

§ Identity

Operator
Country
US
Launch date
2022-05-18
Launch site
AFETR
Launch vehicle
Mass (kg)
RCS (m²)

Purposes: comms

External: N2YO · Heavens-Above · Gunter

§ Orbital elements

Epoch: 2026-09-19T23:32:08.843424Z

Period
95.44 min
Inclination
53.1616°
Eccentricity
0.0001092
Mean motion
15.08837378 rev/d
Perigee alt
539.0 km
Apogee alt
540.5 km
Semi-major
6,917.9 km
B*
2.6557e-4
RAAN
0.8706°
Arg perigee
88.9911°
Mean anomaly
271.1205°
Rev number
24,038

§ Raw data

STARLINK-40791 52666U 22053L   26262.98065791  .00003941  00000+0  26557-3 0  99942 52666  53.1616   0.8706 0001092  88.9911 271.1205 15.08837378240383

JSON: /api/v1/satellites/52666 · /tle

For live sub-satellite position, see the globe view (requires WebGL).

§ Visibility from observer

Set your observer location to see the next 7 days of passes ≥ 10°. The values pass through the URL so the page stays shareable.

No JS? Fill the form by hand. The geolocation button needs JavaScript.